FW2486 Weather Reports


time (UTC)temp
C
wind
direction
speed
KPH
gust
KPH
rain 1hr
cm
rain 24hr
cm
rain mn
cm
humidity
%
barometer
mb
20260508114532 7 173 6.4 112.7 0.00 6.07 6.07 74 1019.7
20260508113035 7 166 9.7 177.0 0.00 6.07 6.07 74 1019.6
20260508111537 7 154 17.7 255.9 6.07 6.07 6.07 72 1019.5
20260508110032 7 245 33.8 281.6 6.07 6.07 6.07 71 1019.4
20260508104532 6 201 9.7 175.4 6.07 6.07 6.07 72 1019.5
20260508103035 6 230 11.3 90.1 6.07 6.07 0.00 72 1019.5
20260508101534 6 195 1.6 119.1 0.00 0.00 0.00 69 1019.6
20260508094533 8 228 14.5 159.3 0.00 0.00 0.00 61 1019.6
20260508093032 8 170 6.4 16.1 0.00 0.00 0.00 61 1019.5
20260508091535 8 145 8.0 17.7 0.00 0.00 0.00 60 1019.5
20260508084533 8 145 8.0 12.9 0.00 0.00 0.00 61 1019.5
20260508083142 8 149 6.4 14.5 0.00 0.00 0.00 62 1019.5
20260508081529 8 140 8.0 29.0 0.00 0.00 0.00 62 1019.5
20260508080035 9 166 3.2 6.4 0.00 0.00 0.00 59 1019.5
20260508073107 10 143 14.5 109.4 0.00 0.00 0.00 56 1019.5
20260508071536 10 142 9.7 46.7 0.00 0.00 0.00 54 1019.5
20260508070036 11 158 6.4 32.2 0.00 0.00 0.00 52 1019.6
20260508064644 12 147 8.0 16.1 0.00 0.00 0.00 50 1019.6
20260508063035 12 139 8.0 14.5 0.00 0.00 0.00 48 1019.7
20260508061532 12 132 8.0 11.3 0.00 0.00 0.00 47 1019.7
20260508060034 13 136 8.0 22.5 0.00 0.00 0.00 45 1019.8
20260508054536 13 141 6.4 12.9 0.00 0.00 0.00 43 1019.8
20260508053034 13 142 8.0 14.5 0.00 0.00 0.00 42 1019.8
20260508050146 14 146 9.7 16.1 0.00 0.00 0.00 40 1019.8
20260508044534 14 150 6.4 12.9 0.00 0.00 0.00 41 1019.7
20260508043029 14 157 6.4 17.7 0.00 0.00 0.00 40 1019.6
20260508041534 14 156 6.4 12.9 0.00 0.00 0.00 38 1019.5
20260508040033 15 171 6.4 12.9 0.00 0.00 0.00 36 1019.3
20260508034534 15 143 9.7 27.4 0.00 0.00 0.00 33 1019.1
20260508033030 15 152 8.0 16.1 0.00 0.00 0.00 31 1018.9
20260508031532 16 160 6.4 19.3 0.00 0.00 0.00 27 1018.8
20260508030143 16 164 6.4 12.9 0.00 0.00 0.00 26 1018.9
20260508024534 18 162 4.8 16.1 0.00 0.00 0.00 26 1018.8
20260508023034 18 169 11.3 38.6 0.00 0.00 0.00 25 1018.7
20260508021608 20 210 4.8 19.3 0.00 0.00 0.00 25 1018.7
20260508020034 20 193 6.4 30.6 0.00 0.00 0.00 24 1018.6
20260508013031 21 189 8.0 27.4 0.00 0.00 0.00 24 1018.6
20260508011607 22 223 11.3 30.6 0.00 0.00 0.00 23 1018.7
20260508010036 22 215 14.5 33.8 0.00 0.00 0.00 22 1018.7
20260508004651 22 215 9.7 29.0 0.00 0.00 0.00 21 1018.6
20260508003033 22 225 6.4 27.4 0.00 0.00 0.00 21 1018.5
20260508000038 23 239 14.5 33.8 0.00 0.00 0.00 20 1018.5
20260507234542 23 211 9.7 24.1 0.00 0.00 0.00 21 1018.5
20260507234536 23 230 8.0 29.0 0.00 0.00 0.00 21 1018.5
20260507231533 23 218 8.0 33.8 0.00 0.00 0.00 22 1018.7
20260507230029 23 213 11.3 29.0 0.00 0.00 0.00 22 1018.8
20260507224536 23 204 9.7 25.7 0.00 0.00 0.00 23 1018.8
20260507223106 22 196 11.3 20.9 0.00 0.00 0.00 23 1019.0
20260507221537 22 195 9.7 22.5 0.00 0.00 0.00 23 1019.2
20260507220038 22 194 9.7 24.1 0.00 0.00 0.00 24 1019.3
20260507214534 23 196 9.7 25.7 0.00 0.00 0.00 24 1019.4
20260507213037 22 190 8.0 25.7 0.00 0.00 0.00 26 1019.5
20260507204536 22 204 11.3 20.9 0.00 0.00 0.00 26 1019.8
20260507203106 22 190 11.3 24.1 0.00 0.00 0.00 26 1019.9
20260507201537 21 209 9.7 19.3 0.00 0.00 0.00 27 1020.1
20260507194535 21 202 9.7 19.3 0.00 0.00 0.00 29 1020.3
20260507193037 20 200 11.3 24.1 0.00 0.00 0.00 29 1020.5
20260507191535 20 203 11.3 20.9 0.00 0.00 0.00 31 1020.6
20260507190035 20 203 6.4 22.5 0.00 0.00 0.00 33 1020.6
20260507183147 18 205 8.0 17.7 0.00 0.00 0.00 36 1020.9
20260507181642 18 192 8.0 17.7 0.00 0.00 0.00 38 1021.0
20260507180106 18 193 8.0 14.5 0.00 0.00 0.00 39 1021.1
20260507174642 17 205 9.7 20.9 0.00 0.00 0.00 41 1021.3
20260507173033 17 211 8.0 20.9 0.00 0.00 0.00 41 1021.4
20260507171539 16 215 8.0 22.5 0.00 0.00 0.00 44 1021.5
20260507170035 16 223 9.7 19.3 0.00 0.00 0.00 46 1021.5
20260507164536 15 215 8.0 17.7 0.00 0.00 0.00 48 1021.6
20260507163037 15 207 9.7 25.7 0.00 0.00 0.00 48 1021.7
20260507161533 15 201 9.7 22.5 0.00 0.00 0.00 51 1021.8
20260507160037 15 216 8.0 17.7 0.00 0.00 0.00 52 1021.9
20260507154534 15 229 8.0 30.6 0.00 0.00 0.00 53 1021.9
20260507151536 14 233 6.4 19.3 0.00 0.00 0.00 56 1022.2
20260507150048 14 242 6.4 16.1 0.00 0.00 0.00 57 1022.2
20260507143037 12 258 4.8 17.7 0.00 0.00 0.00 67 1022.0
20260507141531 11 108 3.2 17.7 0.00 0.00 0.00 69 1021.9
20260507140035 11 217 4.8 57.9 0.00 0.00 0.00 70 1021.8
20260507134538 11 217 4.8 38.6 0.00 0.00 0.00 72 1021.8
20260507133032 11 197 4.8 20.9 0.00 0.00 0.00 72 1021.8
20260507131607 11 197 6.4 22.5 0.00 0.00 0.00 72 1021.9
20260507130031 11 186 8.0 22.5 0.00 0.00 0.00 72 1021.8
20260507124643 12 173 6.4 20.9 0.00 0.00 0.00 72 1021.9
20260507123107 12 156 8.0 35.4 0.00 0.00 0.00 73 1021.8
20260507121535 12 144 8.0 22.5 0.00 0.00 0.00 73 1021.8
20260507120031 12 144 11.3 33.8 0.00 0.00 0.00 73 1021.7